Location: Aragoneses
(41.0275°N, 4.3847°W)
Time: 08:34:15
(UTC+00:00)

ISS - Pass Details

Date: 24 February 2026
Orbit: 417 x 426 km, 51.6° (Epoch: 14 March)

Event Time Altitude Azimuth Distance (km) Brightness Sun altitude
Exits shadow 05:30:46 12° 343° (NNW) 1,371 -1.3 -17.5°
Maximum altitude 05:31:50 14° 3° (N) 1,296 -1.2 -17.3°
Drops below altitude 10° 05:33:38 10° 36° (NE) 1,499 -0.4 -16.9°
Sets 05:36:33 0° 64° (ENE) 2,361 1.3 -16.4°
